Flag for United Kingdom Weather past 2 weeks in Oldham, England, United Kingdom

Now
64 °F

Partly sunny.


Feels Like: 64 °F
Forecast: 51 / 65 °F
Wind: 5 mph from East

Location: Manchester Airport

Current Time: Sep 19, 2014 at 1:22:16 PM

Latest Report: Sep 19, 2014 at 12:50 PM


Visibility: 6 mi

Pressure: 29.92 "Hg

Humidity: 78%

Dew point: 57 °F

Location of OldhamLocation

Historic Weather in Oldham — Graph

°F

Oldham temperature yesterday

Maximum temperature yesterday: 72 °F (at 3:20 PM)
Minimum temperature yesterday: 55 °F (at 6:20 AM)
Average temperature yesterday: 64 °F

Past Weeks' High & Low Weather Summary

 TemperatureHumidityPressure
High72 °F (Sep 5, 1:50 PM)100% (Sep 5, 6:20 AM)30.39 "Hg (Sep 5, 6:20 AM)
Low45 °F (Sep 7, 3:50 AM)47% (Sep 16, 3:20 PM)29.86 "Hg (Sep 18, 4:20 AM)
Average59 °F82%30.10 "Hg
* Reported Sep 4 12:20 PM — Sep 19 12:20 PM, Oldham, Weather by CustomWeather, © 2014

Note: Actual official high and low records may vary slightly from our data, if they occured in-between our weather recording intervals... More about our weather records

Advertising

Oldham weather history for previous 24 hours

 ConditionsComfort  
Time TempWeatherWind HumidityBarometerVisibility
12:20 PM
Sep 19
63 °FPartly sunny.6 mph83%29.92 "Hg6 mi
11:50 AM63 °FBroken clouds.6 mph83%29.92 "HgN/A
11:20 AM63 °FBroken clouds.6 mph83%29.92 "HgN/A
10:50 AM63 °FPartly sunny.5 mph83%29.92 "Hg6 mi
10:20 AM63 °FScattered clouds.5 mph83%29.92 "Hg6 mi
9:50 AM61 °FScattered clouds.5 mph88%29.92 "Hg5 mi
9:20 AM61 °FPassing clouds.6 mph88%29.89 "Hg4 mi
8:50 AM61 °FHaze.3 mph88%29.89 "Hg3 mi
8:20 AM59 °FHaze.5 mph94%29.89 "Hg3 mi
7:50 AM57 °FFog.6 mph94%29.89 "Hg2 mi
7:20 AM55 °FFog.8 mph100%29.89 "Hg2 mi
6:50 AM54 °FFog.7 mph100%29.89 "Hg1 mi
6:20 AM54 °FFog.5 mph100%29.89 "Hg2 mi
5:50 AM54 °FFog.3 mph100%29.86 "Hg1 mi
5:20 AM54 °FPassing clouds.5 mph100%29.86 "Hg2 mi
4:50 AM55 °FPassing clouds.7 mph100%29.86 "Hg2 mi
4:20 AM55 °FFog.6 mph94%29.89 "Hg2 mi
3:50 AM55 °FFog.8 mph100%29.89 "Hg2 mi
3:20 AM55 °FHaze.8 mph100%29.89 "Hg2 mi
2:50 AM55 °FHaze.8 mph100%29.89 "Hg2 mi
2:20 AM55 °FFog.8 mph100%29.89 "Hg2 mi
1:50 AM55 °FFog.9 mph100%29.89 "Hg2 mi
1:20 AM57 °FFog.8 mph94%29.89 "Hg2 mi
12:50 AM57 °FHaze.7 mph94%29.89 "Hg2 mi
12:20 AM57 °FFog.6 mph94%29.89 "Hg2 mi
11:50 PM
Sep 18
59 °FFog.12 mph94%29.89 "Hg2 mi
11:20 PM59 °FHaze.9 mph94%29.89 "Hg2 mi
10:50 PM61 °FClear.10 mph88%29.89 "Hg4 mi
10:20 PM61 °FClear.8 mph88%29.89 "Hg4 mi
9:50 PM61 °FClear.10 mph88%29.89 "Hg5 mi
9:20 PM63 °FHaze.12 mph88%29.89 "Hg3 mi
8:20 PM64 °FClear.10 mph83%29.86 "Hg4 mi
7:50 PM64 °FClear.10 mph88%29.86 "Hg4 mi
7:20 PM66 °FClear.10 mph83%29.86 "Hg4 mi
6:50 PM66 °FClear.12 mph83%29.86 "Hg4 mi
6:20 PM68 °FClear.10 mph78%29.86 "Hg4 mi
5:50 PM70 °FPassing clouds.10 mph73%29.86 "Hg5 mi
5:20 PM70 °FPassing clouds.10 mph73%29.86 "Hg5 mi
4:50 PM70 °FClear.13 mph73%29.86 "Hg4 mi
4:20 PM70 °FClear.14 mph73%29.86 "Hg4 mi
3:50 PM70 °FClear.14 mph73%29.86 "Hg4 mi
3:20 PM72 °FClear.9 mph69%29.86 "Hg4 mi
2:50 PM70 °FPassing clouds.8 mph73%29.86 "Hg4 mi
2:20 PM70 °FPassing clouds.6 mph73%29.86 "Hg4 mi
1:50 PM70 °FClear.6 mph73%29.86 "Hg5 mi
1:20 PM68 °FClear.7 mph78%29.86 "Hg6 mi
Weather by CustomWeather, © 2014

See weather overviewHow to use our weather pages